TimeEST,TemperatureF,Dew PointF,Humidity,Sea Level PressureIn,VisibilityMPH,Wind Direction,Wind SpeedMPH,Gust SpeedMPH,PrecipitationIn,Events,Conditions,WindDirDegrees,DateUTC
12:15 AM,38.5,17.4,43,30.27,10.0,ENE,10.4,-,N/A,,Scattered Clouds,60,2013-02-22 05:15:00
12:35 AM,38.3,17.2,43,30.27,10.0,NE,8.1,17.3,N/A,,Overcast,40,2013-02-22 05:35:00
12:55 AM,37.9,17.2,43,30.29,10.0,NE,8.1,-,N/A,,Overcast,50,2013-02-22 05:55:00
1:15 AM,37.6,18.0,45,30.31,10.0,NNE,4.6,-,N/A,,Overcast,20,2013-02-22 06:15:00
1:35 AM,37.6,16.9,43,30.35,10.0,North,5.8,-,N/A,,Overcast,360,2013-02-22 06:35:00
1:55 AM,37.4,17.2,44,30.36,10.0,NE,3.5,-,N/A,,Overcast,40,2013-02-22 06:55:00
2:15 AM,36.9,17.2,45,30.34,10.0,NE,5.8,-,N/A,,Overcast,50,2013-02-22 07:15:00
2:35 AM,36.5,18.5,48,30.33,10.0,NE,6.9,-,N/A,,Overcast,50,2013-02-22 07:35:00
2:55 AM,36.5,17.2,46,30.32,10.0,NE,3.5,-,N/A,,Overcast,50,2013-02-22 07:55:00
3:15 AM,36.1,16.9,46,30.33,10.0,NNE,4.6,-,N/A,,Overcast,30,2013-02-22 08:15:00
3:35 AM,36.0,18.0,48,30.32,10.0,NE,4.6,-,N/A,Snow,Light Snow,50,2013-02-22 08:35:00
3:55 AM,35.2,18.7,51,30.33,7.0,NE,3.5,-,N/A,Snow,Light Snow,40,2013-02-22 08:55:00
4:35 AM,33.1,23.0,66,30.33,5.0,NNE,3.5,-,0.01,Snow,Light Snow,20,2013-02-22 09:35:00
4:55 AM,32.4,24.1,72,30.31,5.0,ENE,6.9,-,0.02,Snow,Light Snow,60,2013-02-22 09:55:00
5:15 AM,32.0,25.9,78,30.26,7.0,East,10.4,-,0.02,,Overcast,80,2013-02-22 10:15:00
5:35 AM,32.0,26.8,81,30.28,10.0,ENE,4.6,-,0.03,,Overcast,60,2013-02-22 10:35:00
5:55 AM,32.0,27.1,82,30.26,10.0,ENE,8.1,-,0.03,,Overcast,70,2013-02-22 10:55:00
6:15 AM,31.6,27.1,83,30.25,10.0,ENE,6.9,-,N/A,,Overcast,60,2013-02-22 11:15:00
6:35 AM,31.8,26.6,81,30.27,10.0,NNE,5.8,-,N/A,,Overcast,30,2013-02-22 11:35:00
6:55 AM,31.8,26.1,79,30.28,10.0,NE,4.6,-,N/A,,Overcast,40,2013-02-22 11:55:00
7:15 AM,31.6,26.6,82,30.27,10.0,NE,4.6,-,N/A,,Overcast,40,2013-02-22 12:15:00
7:35 AM,32.0,25.5,77,30.30,10.0,Calm,Calm,-,N/A,,Overcast,0,2013-02-22 12:35:00
7:55 AM,32.0,25.0,75,30.31,10.0,Calm,Calm,-,N/A,,Overcast,0,2013-02-22 12:55:00
8:15 AM,32.0,25.5,77,30.33,10.0,Calm,Calm,-,N/A,,Overcast,0,2013-02-22 13:15:00
8:35 AM,32.0,25.5,77,30.33,10.0,Calm,Calm,-,N/A,,Overcast,0,2013-02-22 13:35:00
8:55 AM,32.4,25.2,75,30.33,10.0,Calm,Calm,-,N/A,,Overcast,0,2013-02-22 13:55:00
9:15 AM,32.9,26.1,76,30.32,10.0,Calm,Calm,-,N/A,,Overcast,0,2013-02-22 14:15:00
9:35 AM,33.3,25.2,72,30.33,10.0,Calm,Calm,-,N/A,,Mostly Cloudy,0,2013-02-22 14:35:00
9:55 AM,33.8,26.1,73,30.32,10.0,East,3.5,-,N/A,,Mostly Cloudy,80,2013-02-22 14:55:00
10:15 AM,34.2,25.5,71,30.31,10.0,ENE,5.8,-,N/A,,Mostly Cloudy,70,2013-02-22 15:15:00
10:35 AM,35.4,25.7,68,30.29,10.0,East,6.9,-,N/A,,Mostly Cloudy,80,2013-02-22 15:35:00
10:55 AM,36.0,25.9,67,30.30,10.0,East,8.1,-,N/A,,Overcast,90,2013-02-22 15:55:00
11:15 AM,36.1,25.5,65,30.30,10.0,ENE,3.5,-,N/A,,Overcast,70,2013-02-22 16:15:00
11:35 AM,37.4,25.9,63,30.31,10.0,SE,4.6,-,N/A,,Overcast,130,2013-02-22 16:35:00
11:55 AM,36.9,26.1,65,30.30,10.0,ESE,4.6,-,N/A,Rain,Light Rain,110,2013-02-22 16:55:00
12:15 PM,37.0,25.9,64,30.28,10.0,SSE,4.6,-,N/A,,Overcast,150,2013-02-22 17:15:00
12:35 PM,37.6,26.1,63,30.28,10.0,ESE,6.9,-,N/A,,Overcast,110,2013-02-22 17:35:00
12:55 PM,37.4,25.5,62,30.28,10.0,SE,4.6,-,N/A,,Overcast,140,2013-02-22 17:55:00
1:15 PM,37.8,26.6,64,30.27,10.0,SE,3.5,-,N/A,,Overcast,140,2013-02-22 18:15:00
1:35 PM,38.1,26.8,64,30.26,10.0,ESE,4.6,-,N/A,,Overcast,120,2013-02-22 18:35:00
1:55 PM,38.3,27.0,64,30.24,10.0,ESE,4.6,-,N/A,,Overcast,110,2013-02-22 18:55:00
2:15 PM,38.7,27.5,64,30.23,10.0,East,4.6,-,N/A,,Overcast,90,2013-02-22 19:15:00
2:35 PM,38.1,26.8,64,30.24,10.0,East,4.6,-,N/A,,Overcast,80,2013-02-22 19:35:00
2:55 PM,38.7,27.0,63,30.24,10.0,NNE,3.5,-,N/A,,Overcast,30,2013-02-22 19:55:00
3:15 PM,38.5,26.8,63,30.24,10.0,ENE,3.5,-,N/A,,Overcast,60,2013-02-22 20:15:00
3:35 PM,39.2,27.0,62,30.22,10.0,East,4.6,-,N/A,,Overcast,90,2013-02-22 20:35:00
3:55 PM,39.0,27.0,62,30.23,10.0,ENE,4.6,-,N/A,Rain,Light Rain,60,2013-02-22 20:55:00
4:15 PM,38.3,29.1,70,30.22,10.0,NE,3.5,-,0.01,Rain,Light Rain,40,2013-02-22 21:15:00
4:35 PM,38.7,28.9,68,30.22,10.0,ENE,4.6,-,0.01,,Overcast,60,2013-02-22 21:35:00
4:55 PM,38.7,28.8,68,30.21,10.0,ENE,4.6,-,0.01,,Overcast,70,2013-02-22 21:55:00
5:15 PM,38.3,28.9,69,30.21,10.0,ENE,4.6,-,N/A,,Drizzle,60,2013-02-22 22:15:00
5:35 PM,37.9,30.4,74,30.22,10.0,East,3.5,-,N/A,,Drizzle,80,2013-02-22 22:35:00
5:55 PM,37.4,30.4,76,30.23,4.0,Calm,Calm,-,0.01,Rain,Rain,0,2013-02-22 22:55:00
6:15 PM,36.5,32.0,84,30.22,7.0,Calm,Calm,-,N/A,Rain,Rain,0,2013-02-22 23:15:00
6:35 PM,36.0,32.4,87,30.21,5.0,ENE,3.5,-,0.01,Rain,Rain,70,2013-02-22 23:35:00
6:55 PM,35.6,32.9,90,30.19,7.0,ENE,5.8,-,0.01,,Drizzle,60,2013-02-22 23:55:00
7:15 PM,35.6,32.9,90,30.19,7.0,ESE,3.5,-,N/A,,Light Drizzle,110,2013-02-23 00:15:00
7:35 PM,35.6,32.9,90,30.20,10.0,East,4.6,-,N/A,,Overcast,80,2013-02-23 00:35:00
7:55 PM,35.6,33.3,91,30.22,5.0,North,4.6,-,N/A,Rain,Rain,350,2013-02-23 00:55:00
8:15 PM,35.2,33.4,93,30.21,3.0,North,3.5,-,0.01,Rain,Rain,10,2013-02-23 01:15:00
8:35 PM,35.2,33.8,94,30.21,3.0,NE,3.5,-,0.02,,Drizzle,40,2013-02-23 01:35:00
8:55 PM,35.1,33.8,95,30.19,4.0,ENE,3.5,-,0.02,,Drizzle,60,2013-02-23 01:55:00
9:15 PM,35.1,33.8,95,30.18,4.0,ENE,4.6,-,N/A,,Drizzle,70,2013-02-23 02:15:00
9:35 PM,34.9,33.8,96,30.19,3.0,NE,3.5,-,N/A,Rain,Light Rain,40,2013-02-23 02:35:00
9:55 PM,34.9,33.8,96,30.20,4.0,North,4.6,-,N/A,,Overcast,350,2013-02-23 02:55:00
10:15 PM,35.1,34.0,96,30.21,3.0,North,6.9,-,N/A,,Overcast,350,2013-02-23 03:15:00
10:35 PM,34.9,33.8,96,30.20,2.5,NNW,5.8,-,N/A,,Drizzle,340,2013-02-23 03:35:00
10:55 PM,34.9,33.8,96,30.18,2.0,NNE,3.5,-,N/A,,Drizzle,30,2013-02-23 03:55:00
11:15 PM,34.9,34.0,97,30.18,2.0,Calm,Calm,-,0.01,,Drizzle,0,2013-02-23 04:15:00
11:35 PM,34.9,34.0,97,30.17,2.0,NNE,3.5,-,0.01,,Light Drizzle,20,2013-02-23 04:35:00
11:55 PM,34.9,34.0,97,30.15,2.0,NNE,4.6,-,0.01,,Light Drizzle,20,2013-02-23 04:55:00